Location: Nians�bougou
(13.2321°N, 4.9818°W)
Time: 12:23:28
(UTC+00:00)

NATO 3D Rocket - Pass Details

Date: 18 February 2020
Orbit: 670 x 2296 km, 21.5° (Epoch: 29 March)

Event Time Altitude Azimuth Distance (km) Brightness Sun altitude
Exits shadow 05:16:56 44° 293° (WNW) 1,085 3.8 -21.2°
Maximum altitude 05:18:19 57° 344° (NNW) 883 3.6 -20.8°
Drops below altitude 10° 05:23:02 10° 64° (ENE) 2,114 6.6 -19.7°
Sets 05:25:18 0° 68° (ENE) 2,996 7.6 -19.1°
